Auburn, IN

4:15 PM EDT on September 22, 2017 (GMT -0400)
Auburn

Weather History for KGWB - November, 2012

Change the Weather History Date:

Friday, November 9, 2012

  Actual Average (KFWA) Record (KFWA)
Temperature  
Mean Temperature 44 °F -  
Max Temperature 59 °F 52 °F 74 °F (1975)
Min Temperature 28 °F 36 °F 15 °F (1991)
Degree Days  
Heating Degree Days 22    
Moisture  
Dew Point 35 °F    
Average Humidity 74    
Maximum Humidity 100    
Minimum Humidity 45    
Precipitation  
Precipitation 0.24 in - - ()
Sea Level Pressure  
Sea Level Pressure 30.13 in    
Wind  
Wind Speed 1 mph (South)    
Max Wind Speed 9 mph    
Max Gust Speed -    
Visibility 6 miles    
Events Rain    
Averages and records for this station are not official NWS values.
T = Trace of Precipitation, MM = Missing Value Source: NWS Daily Summary

Daily Weather History Graph

Daily Weather History Graph

Search for Another Location

Airport or City:

Trip Planner

Search our weather history database for the weather conditions in past years. The results will help you decide how hot, cold, wet, or windy it might be!

Date:

Astronomy

Nov. 09, 2012 Rise Set
Actual Time 7:21 AM EST 5:25 PM EST
Civil Twilight 6:52 AM EST 5:55 PM EST
Nautical Twilight 6:19 AM EST 6:28 PM EST
Astronomical Twilight 5:47 AM EST 7:00 PM EST
Moon 2:16 AM EST (11/9) 2:41 PM EST (11/9)
Length of Visible Light 11h 02m
Length of Day
10h 04m
Waning Crescent, 23% of the Moon is Illuminated
Nov 9
Waning Crescent
Nov 13
New
Nov 20
First Quarter
Nov 28
Full
Dec 6
Last Quarter

Hourly Weather History & Observations

Time (EST) Temp. Windchill Dew Point Humidity Pressure Visibility Wind Dir Wind Speed Gust Speed Precip Events Conditions
12:15 AM 32.0 °F - 30.2 °F 93% 30.15 in 3.0 mi Calm Calm - N/A   Clear
12:35 AM 32.0 °F - 30.2 °F 93% 30.15 in 3.0 mi Calm Calm - N/A   Clear
12:55 AM 30.2 °F - 28.4 °F 93% 30.16 in 3.0 mi Calm Calm - N/A   Clear
1:15 AM 30.2 °F - 28.4 °F 93% 30.15 in 3.0 mi Calm Calm - N/A   Clear
1:35 AM 30.2 °F - 28.4 °F 93% 30.16 in 2.5 mi Calm Calm - N/A   Clear
1:55 AM 30.2 °F - 28.4 °F 93% 30.16 in 1.5 mi Calm Calm - N/A   Mist
2:15 AM 30.2 °F - 28.4 °F 93% 30.17 in 2.0 mi Calm Calm - N/A   Clear
2:35 AM 30.2 °F - 28.4 °F 93% 30.17 in 2.5 mi Calm Calm - N/A   Clear
2:55 AM 30.2 °F - 28.4 °F 93% 30.17 in 1.8 mi Calm Calm - N/A   Mist
3:15 AM 32.0 °F - 30.2 °F 93% 30.17 in 1.0 mi Calm Calm - N/A   Mist
3:35 AM 32.0 °F - 30.2 °F 93% 30.17 in 1.5 mi Calm Calm - N/A   Mist
3:55 AM 30.2 °F - 30.2 °F 100% 30.17 in 1.0 mi Calm Calm - N/A   Mist
4:15 AM 30.2 °F - 28.4 °F 93% 30.18 in 1.5 mi Calm Calm - N/A   Mist
4:35 AM 30.2 °F - 30.2 °F 100% 30.18 in 1.0 mi Calm Calm - N/A   Mist
4:55 AM 30.2 °F - 28.4 °F 93% 30.18 in 1.0 mi Calm Calm - N/A   Mist
5:15 AM 30.2 °F - 28.4 °F 93% 30.19 in 1.5 mi Calm Calm - N/A   Mist
5:35 AM 28.4 °F - 26.6 °F 93% 30.18 in 1.5 mi Calm Calm - N/A   Mist
5:55 AM 30.2 °F - 28.4 °F 93% 30.18 in 1.8 mi Calm Calm - N/A   Mist
6:15 AM 28.4 °F - 26.6 °F 93% 30.18 in 2.0 mi Calm Calm - N/A   Clear
6:35 AM 30.2 °F - 28.4 °F 93% 30.18 in 1.8 mi Calm Calm - N/A   Mist
6:55 AM 30.2 °F - 28.4 °F 93% 30.18 in 2.0 mi Calm Calm - N/A   Clear
7:15 AM 28.4 °F - 26.6 °F 93% 30.19 in 1.8 mi Calm Calm - N/A   Mist
7:35 AM 30.2 °F - 28.4 °F 93% 30.19 in 1.0 mi Calm Calm - N/A   Mist
7:55 AM 30.2 °F - 28.4 °F 93% 30.19 in 1.2 mi Calm Calm - N/A   Mist
8:15 AM 32.0 °F 28.7 °F 32.0 °F 100% 30.19 in 1.5 mi South 3.5 mph - N/A   Mist
8:35 AM 33.8 °F 30.8 °F 32.0 °F 93% 30.19 in 1.5 mi South 3.5 mph - N/A   Mist
8:55 AM 35.6 °F 32.8 °F 33.8 °F 93% 30.19 in 2.0 mi South 3.5 mph - N/A   Clear
9:15 AM 37.4 °F 34.9 °F 33.8 °F 87% 30.19 in 2.5 mi South 3.5 mph - N/A   Clear
9:35 AM 41.0 °F 38.0 °F 35.6 °F 81% 30.19 in 3.0 mi SSW 4.6 mph - N/A   Haze
9:55 AM 42.8 °F 40.1 °F 35.6 °F 76% 30.19 in 4.0 mi SSW 4.6 mph - N/A   Haze
10:15 AM 44.6 °F 43.1 °F 35.6 °F 71% 30.19 in 4.0 mi SSW 3.5 mph - N/A   Haze
10:35 AM 46.4 °F 44.3 °F 37.4 °F 71% 30.18 in 5.0 mi South 4.6 mph - N/A   Haze
10:55 AM 50.0 °F - 37.4 °F 62% 30.18 in 5.0 mi SSW 5.8 mph - N/A   Haze
11:15 AM 50.0 °F - 37.4 °F 62% 30.17 in 7.0 mi South 5.8 mph - N/A   Clear
11:35 AM 51.8 °F - 35.6 °F 54% 30.16 in 10.0 mi South 4.6 mph - N/A   Clear
11:55 AM 53.6 °F - 37.4 °F 54% 30.15 in 7.0 mi South 8.1 mph - N/A   Clear
12:15 PM 53.6 °F - 37.4 °F 54% 30.14 in 7.0 mi South 5.8 mph - N/A   Clear
12:35 PM 53.6 °F - 37.4 °F 54% 30.13 in 10.0 mi South 9.2 mph - N/A   Clear
12:55 PM 55.4 °F - 37.4 °F 51% 30.13 in 10.0 mi South 6.9 mph - N/A   Clear
1:15 PM 55.4 °F - 37.4 °F 51% 30.11 in 7.0 mi South 5.8 mph - N/A   Clear
1:35 PM 55.4 °F - 37.4 °F 51% 30.10 in 10.0 mi South 6.9 mph - N/A   Clear
1:55 PM 55.4 °F - 37.4 °F 51% 30.10 in 10.0 mi SSE 5.8 mph - N/A   Clear
2:15 PM 57.2 °F - 37.4 °F 48% 30.09 in 10.0 mi SSE 5.8 mph - N/A   Clear
2:35 PM 57.2 °F - 37.4 °F 48% 30.08 in 10.0 mi SSE 3.5 mph - N/A   Clear
2:55 PM 59.0 °F - 37.4 °F 45% 30.08 in 10.0 mi SSE 4.6 mph - N/A   Clear
3:15 PM 59.0 °F - 37.4 °F 45% 30.08 in 10.0 mi SE 4.6 mph - N/A   Scattered Clouds
3:35 PM 57.2 °F - 37.4 °F 48% 30.08 in 10.0 mi SSE 5.8 mph - N/A   Mostly Cloudy
3:55 PM 57.2 °F - 37.4 °F 48% 30.08 in 10.0 mi SE 4.6 mph - N/A   Overcast
4:15 PM 59.0 °F - 37.4 °F 45% 30.08 in 10.0 mi SSE 4.6 mph - N/A   Scattered Clouds
4:35 PM 55.4 °F - 37.4 °F 51% 30.07 in 10.0 mi SSE 4.6 mph - N/A   Clear
4:55 PM 55.4 °F - 37.4 °F 51% 30.07 in 10.0 mi SSE 3.5 mph - N/A   Mostly Cloudy
5:15 PM 55.4 °F - 37.4 °F 51% 30.07 in 10.0 mi Calm Calm - N/A   Overcast
5:35 PM 55.4 °F - 37.4 °F 51% 30.07 in 10.0 mi Calm Calm - N/A   Overcast
5:55 PM 55.4 °F - 37.4 °F 51% 30.07 in 10.0 mi Calm Calm - N/A   Overcast
6:15 PM 55.4 °F - 37.4 °F 51% 30.07 in 10.0 mi Calm Calm - N/A   Overcast
6:35 PM 53.6 °F - 37.4 °F 54% 30.06 in 10.0 mi SE 3.5 mph - N/A   Mostly Cloudy
6:55 PM 53.6 °F - 39.2 °F 58% 30.06 in 10.0 mi Calm Calm - N/A   Scattered Clouds
7:15 PM 53.6 °F - 37.4 °F 54% 30.07 in 10.0 mi Calm Calm - N/A   Scattered Clouds
7:35 PM 51.8 °F - 41.0 °F 67% 30.06 in 7.0 mi Calm Calm - 0.02 in   Mostly Cloudy
7:55 PM 53.6 °F - 41.0 °F 62% 30.06 in 10.0 mi Calm Calm - 0.02 in   Overcast
8:15 PM 50.0 °F - 42.8 °F 76% 30.05 in 3.0 mi SSE 4.6 mph - 0.07 in Rain Rain
8:35 PM 50.0 °F - 42.8 °F 76% 30.07 in 5.0 mi Calm Calm - 0.21 in Rain Light Rain
8:55 PM 50.0 °F - 42.8 °F 76% 30.07 in 7.0 mi Calm Calm - 0.22 in   Overcast
9:15 PM 50.0 °F - 42.8 °F 76% 30.08 in 7.0 mi Calm Calm - N/A   Overcast
9:35 PM 50.0 °F - 42.8 °F 76% 30.08 in 7.0 mi Calm Calm - N/A   Overcast
9:55 PM 50.0 °F - 42.8 °F 76% 30.09 in 7.0 mi Calm Calm - N/A   Overcast
10:15 PM 50.0 °F - 42.8 °F 76% 30.09 in 7.0 mi Calm Calm - N/A   Overcast
10:35 PM 50.0 °F - 42.8 °F 76% 30.08 in 7.0 mi Calm Calm - N/A   Overcast
10:55 PM 50.0 °F - 42.8 °F 76% 30.08 in 7.0 mi Calm Calm - N/A   Overcast
11:15 PM 50.0 °F - 42.8 °F 76% 30.08 in 7.0 mi Calm Calm - N/A   Overcast
11:35 PM 50.0 °F - 42.8 °F 76% 30.08 in 7.0 mi Calm Calm - N/A   Overcast
11:55 PM 50.0 °F - 42.8 °F 76% 30.08 in 10.0 mi Calm Calm - N/A   Overcast